QPF
0.04 0.04 0.09 0.10 0.07 0.03 0.03 0.05 0.07 0.07 0.06 0.05 0.07 0.07 0.05 0.05 0.05 0.05 0.03 0.03 0.03 0.03 0.03 0.03 0.04 0.04 0.04 0.04 0.04 0.05 0.05 0.06 0.06 0.03 0.04 0.06 0.10 0.11 0.10 0.08 0.05 0.05 0.08
0.04 0.04 0.09 0.09 0.06 0.03 0.03 0.04 0.05 0.05 0.07 0.08 0.07 0.06 0.06 0.04 0.05 0.05 0.03 0.03 0.03 0.03 0.03 0.03 0.03 0.03 0.03 0.03 0.05 0.05 0.06 0.06 0.04 0.02 0.03 0.08 0.14 0.12 0.11 0.09 0.05 0.04 0.07
0.03 0.04 0.06 0.07 0.05 0.04 0.03 0.03 0.05 0.04 0.06 0.08 0.07 0.06 0.04 0.03 0.04 0.04 0.03 0.03 0.03 0.03 0.03 0.02 0.02 0.03 0.03 0.03 0.05 0.06 0.06 0.05 0.03 0.03 0.03 0.07 0.16 0.15 0.12 0.11 0.07 0.06 0.07
0.03 0.03 0.02 0.05 0.04 0.03 0.02 0.03 0.05 0.05 0.06 0.07 0.06 0.05 0.05 0.05 0.05 0.05 0.04 0.03 0.04 0.04 0.03 0.02 0.02 0.03 0.03 0.03 0.04 0.05 0.05 0.04 0.05 0.03 0.02 0.05 0.10 0.11 0.11 0.10 0.06 0.05 0.07
0.02 0.02 0.02 0.04 0.04 0.03 0.03 0.05 0.08 0.09 0.08 0.08 0.06 0.06 0.04 0.06 0.06 0.06 0.04 0.04 0.03 0.03 0.03 0.03 0.04 0.03 0.03 0.03 0.02 0.02 0.03 0.06 0.07 0.03 0.01 0.02 0.07 0.11 0.13 0.10 0.07 0.06 0.07
0.01 0.01 0.02 0.04 0.05 0.06 0.06 0.08 0.10 0.10 0.09 0.08 0.07 0.07 0.06 0.06 0.06 0.06 0.05 0.05 0.04 0.03 0.03 0.03 0.04 0.04 0.03 0.03 0.02 0.01 0.02 0.04 0.06 0.03 0.03 0.02 0.03 0.09 0.15 0.11 0.08 0.06 0.05
0.01 0.01 0.02 0.04 0.05 0.06 0.05 0.04 0.04 0.06 0.08 0.07 0.08 0.09 0.08 0.07 0.05 0.04 0.04 0.04 0.03 0.03 0.03 0.02 0.03 0.03 0.03 0.03 0.02 0.02 0.02 0.02 0.01 0.02 0.02 0.01 0.03 0.07 0.12 0.11 0.08 0.06 0.05
0.01 0.01 0.02 0.05 0.06 0.06 0.05 0.05 0.03 0.04 0.06 0.07 0.07 0.06 0.05 0.05 0.05 0.05 0.03 0.03 0.03 0.02 0.02 0.02 0.03 0.03 0.03 0.04 0.03 0.02 0.01 0.01 0.00 0.01 0.01 0.02 0.04 0.06 0.09 0.10 0.09 0.07 0.05
0.01 0.01 0.02 0.03 0.04 0.05 0.06 0.04 0.04 0.05 0.03 0.04 0.05 0.06 0.04 0.05 0.05 0.05 0.05 0.04 0.03 0.02 0.02 0.02 0.03 0.04 0.03 0.03 0.03 0.01 0.01 0.00 0.00 0.01 0.01 0.03 0.07 0.09 0.09 0.07 0.08 0.07 0.07
0.01 0.01 0.01 0.01 0.01 0.02 0.03 0.04 0.04 0.05 0.05 0.05 0.07 0.05 0.04 0.03 0.04 0.05 0.05 0.05 0.04 0.04 0.04 0.03 0.03 0.02 0.02 0.03 0.03 0.02 0.01 0.01 0.01 0.01 0.01 0.04 0.06 0.09 0.10 0.11 0.11 0.10 0.10
0.00 0.00 0.00 0.00 0.01 0.01 0.01 0.02 0.03 0.04 0.04 0.03 0.04 0.04 0.03 0.01 0.02 0.03 0.05 0.05 0.05 0.05 0.04 0.04 0.03 0.02 0.01 0.03 0.04 0.03 0.01 0.01 0.01 0.01 0.02 0.04 0.06 0.07 0.08 0.09 0.09 0.09 0.10
0.01 0.01 0.00 0.00 0.00 0.01 0.01 0.01 0.01 0.01 0.01 0.01 0.00 0.01 0.01 0.01 0.01 0.02 0.03 0.05 0.06 0.05 0.05 0.04 0.03 0.01 0.01 0.01 0.02 0.02 0.01 0.02 0.02 0.02 0.03 0.04 0.05 0.05 0.05 0.07 0.08 0.07 0.08
0.00 0.00 0.00 0.00 0.00 0.00 0.00 0.00 0.01 0.00 0.00 0.00 0.00 0.00 0.00 0.01 0.01 0.01 0.01 0.02 0.03 0.03 0.03 0.02 0.02 0.01 0.00 0.01 0.01 0.01 0.02 0.02 0.02 0.02 0.04 0.06 0.05 0.06 0.05 0.07 0.08 0.08 0.09
0.01 0.00 0.00 0.00 0.00 0.00 0.00 0.00 0.00 0.00 0.00 0.00 0.00 0.00 0.00 0.01 0.01 0.01 0.01 0.01 0.01 0.02 0.02 0.02 0.01 0.01 0.01 0.01 0.02 0.03 0.02 0.02 0.03 0.03 0.03 0.06 0.05 0.06 0.06 0.06 0.06 0.07 0.08
0.01 0.00 0.01 0.00 0.00 0.01 0.00 0.01 0.01 0.01 0.01 0.01 0.01 0.01 0.01 0.02 0.02 0.01 0.01 0.01 0.01 0.01 0.02 0.02 0.01 0.01 0.01 0.01 0.03 0.04 0.03 0.03 0.03 0.03 0.03 0.05 0.06 0.06 0.06 0.05 0.06 0.07 0.07
0.01 0.01 0.00 0.00 0.00 0.00 0.01 0.01 0.00 0.01 0.00 0.00 0.00 0.01 0.01 0.02 0.03 0.03 0.02 0.02 0.02 0.03 0.03 0.02 0.02 0.01 0.01 0.02 0.03 0.05 0.04 0.04 0.04 0.03 0.02 0.03 0.05 0.07 0.07 0.06 0.06 0.06 0.05
0.01 0.00 0.00 0.00 0.00 0.00 0.01 0.00 0.00 0.00 0.00 0.01 0.01 0.01 0.01 0.02 0.03 0.02 0.02 0.02 0.03 0.03 0.03 0.02 0.02 0.03 0.03 0.03 0.05 0.08 0.07 0.04 0.04 0.02 0.02 0.03 0.04 0.05 0.07 0.07 0.06 0.06 0.06
0.02 0.02 0.02 0.01 0.01 0.01 0.00 0.00 0.00 0.00 0.00 0.01 0.02 0.02 0.02 0.02 0.02 0.02 0.01 0.01 0.02 0.02 0.02 0.02 0.01 0.02 0.02 0.03 0.04 0.07 0.09 0.05 0.02 0.01 0.01 0.01 0.02 0.02 0.03 0.04 0.05 0.08 0.07
0.04 0.04 0.02 0.01 0.01 0.01 0.01 0.01 0.01 0.01 0.01 0.01 0.01 0.02 0.02 0.02 0.02 0.01 0.01 0.01 0.01 0.01 0.01 0.01 0.01 0.02 0.02 0.02 0.02 0.04 0.08 0.06 0.02 0.01 0.01 0.01 0.01 0.01 0.01 0.02 0.04 0.06 0.08
0.04 0.04 0.03 0.02 0.02 0.01 0.01 0.01 0.01 0.01 0.02 0.02 0.01 0.01 0.01 0.01 0.01 0.01 0.02 0.03 0.02 0.02 0.01 0.01 0.02 0.03 0.03 0.02 0.02 0.02 0.04 0.05 0.03 0.02 0.02 0.02 0.01 0.01 0.01 0.01 0.02 0.02 0.03
0.04 0.04 0.04 0.03 0.02 0.01 0.01 0.01 0.01 0.01 0.02 0.02 0.02 0.01 0.02 0.02 0.01 0.01 0.01 0.02 0.02 0.02 0.01 0.02 0.01 0.02 0.04 0.03 0.03 0.02 0.03 0.04 0.04 0.03 0.03 0.03 0.02 0.01 0.01 0.01 0.01 0.01 0.02
0.02 0.02 0.03 0.03 0.02 0.01 0.01 0.01 0.01 0.01 0.01 0.01 0.01 0.01 0.02 0.02 0.01 0.01 0.01 0.01 0.01 0.02 0.02 0.01 0.01 0.01 0.03 0.04 0.04 0.02 0.03 0.05 0.06 0.04 0.04 0.03 0.01 0.01 0.01 0.01 0.01 0.01 0.01
0.01 0.01 0.02 0.03 0.03 0.02 0.02 0.01 0.01 0.00 0.01 0.02 0.03 0.02 0.02 0.02 0.02 0.02 0.02 0.02 0.02 0.02 0.02 0.02 0.02 0.02 0.03 0.04 0.04 0.03 0.02 0.02 0.04 0.03 0.02 0.01 0.01 0.01 0.01 0.02 0.02 0.02 0.01
0.01 0.01 0.01 0.03 0.04 0.04 0.03 0.02 0.01 0.01 0.01 0.01 0.02 0.02 0.02 0.02 0.02 0.03 0.02 0.02 0.02 0.02 0.02 0.02 0.02 0.02 0.03 0.03 0.04 0.03 0.02 0.01 0.01 0.01 0.01 0.01 0.01 0.01 0.01 0.02 0.02 0.02 0.02
0.01 0.02 0.02 0.02 0.03 0.03 0.03 0.02 0.02 0.02 0.01 0.00 0.01 0.01 0.02 0.02 0.02 0.02 0.02 0.02 0.02 0.02 0.02 0.02 0.03 0.02 0.03 0.04 0.04 0.03 0.02 0.01 0.01 0.01 0.01 0.01 0.01 0.01 0.01 0.01 0.01 0.02 0.02
0.02 0.02 0.02 0.03 0.03 0.03 0.03 0.02 0.03 0.02 0.01 0.01 0.01 0.01 0.01 0.01 0.01 0.01 0.01 0.01 0.01 0.01 0.01 0.01 0.01 0.02 0.03 0.04 0.04 0.03 0.02 0.01 0.01 0.01 0.01 0.01 0.02 0.02 0.01 0.01 0.01 0.01 0.01
MSLP
1012.52 1012.13 1011.86 1011.72 1011.69 1011.73 1011.79 1011.82 1011.81 1011.74 1011.63 1011.52 1011.42 1011.37 1011.37 1011.42 1011.49 1011.57 1011.61 1011.61 1011.55 1011.45 1011.33 1011.20 1011.09 1011.01 1010.96 1010.96 1010.99 1011.05 1011.13 1011.24 1011.35 1011.48 1011.62 1011.75 1011.86 1011.94 1011.99 1011.99 1011.96 1011.90 1011.84
1012.44 1012.05 1011.77 1011.62 1011.58 1011.60 1011.66 1011.69 1011.69 1011.64 1011.56 1011.48 1011.44 1011.43 1011.48 1011.57 1011.68 1011.77 1011.81 1011.81 1011.74 1011.63 1011.48 1011.33 1011.19 1011.06 1010.97 1010.91 1010.88 1010.89 1010.93 1011.01 1011.12 1011.28 1011.46 1011.64 1011.81 1011.94 1012.01 1012.01 1011.97 1011.88 1011.79
1012.22 1011.85 1011.58 1011.43 1011.39 1011.43 1011.49 1011.55 1011.58 1011.57 1011.54 1011.52 1011.52 1011.56 1011.64 1011.75 1011.86 1011.94 1011.97 1011.95 1011.86 1011.73 1011.57 1011.40 1011.24 1011.09 1010.96 1010.85 1010.77 1010.73 1010.74 1010.79 1010.91 1011.08 1011.30 1011.53 1011.74 1011.90 1012.00 1012.02 1011.96 1011.87 1011.76
1011.94 1011.59 1011.34 1011.21 1011.19 1011.24 1011.33 1011.42 1011.49 1011.53 1011.55 1011.58 1011.63 1011.71 1011.81 1011.91 1012.01 1012.06 1012.06 1012.00 1011.89 1011.74 1011.58 1011.41 1011.25 1011.09 1010.95 1010.82 1010.71 1010.64 1010.61 1010.64 1010.75 1010.93 1011.16 1011.41 1011.65 1011.84 1011.96 1011.99 1011.95 1011.85 1011.75
1011.65 1011.35 1011.14 1011.03 1011.03 1011.09 1011.20 1011.31 1011.41 1011.50 1011.57 1011.65 1011.73 1011.83 1011.94 1012.04 1012.10 1012.12 1012.08 1011.99 1011.86 1011.71 1011.55 1011.40 1011.26 1011.13 1011.00 1010.87 1010.74 1010.64 1010.59 1010.59 1010.68 1010.84 1011.07 1011.32 1011.56 1011.76 1011.89 1011.93 1011.90 1011.83 1011.74
1011.45 1011.20 1011.03 1010.95 1010.95 1011.03 1011.13 1011.25 1011.37 1011.47 1011.58 1011.68 1011.80 1011.92 1012.04 1012.12 1012.17 1012.15 1012.08 1011.97 1011.83 1011.68 1011.55 1011.44 1011.34 1011.24 1011.14 1011.02 1010.90 1010.78 1010.69 1010.66 1010.71 1010.83 1011.02 1011.25 1011.47 1011.66 1011.78 1011.83 1011.82 1011.77 1011.72
1011.40 1011.20 1011.06 1011.00 1011.01 1011.07 1011.15 1011.25 1011.35 1011.46 1011.57 1011.70 1011.85 1011.99 1012.12 1012.21 1012.25 1012.22 1012.13 1012.01 1011.87 1011.74 1011.64 1011.57 1011.52 1011.47 1011.40 1011.31 1011.18 1011.05 1010.92 1010.84 1010.83 1010.89 1011.02 1011.19 1011.38 1011.54 1011.65 1011.70 1011.71 1011.69 1011.68
1011.52 1011.37 1011.26 1011.21 1011.21 1011.23 1011.27 1011.32 1011.39 1011.47 1011.58 1011.73 1011.90 1012.07 1012.23 1012.34 1012.39 1012.36 1012.28 1012.16 1012.04 1011.93 1011.87 1011.84 1011.83 1011.83 1011.79 1011.71 1011.58 1011.42 1011.26 1011.11 1011.02 1011.01 1011.06 1011.16 1011.29 1011.41 1011.50 1011.56 1011.58 1011.59 1011.62
1011.76 1011.66 1011.59 1011.55 1011.53 1011.51 1011.50 1011.49 1011.50 1011.55 1011.65 1011.80 1012.00 1012.21 1012.40 1012.55 1012.63 1012.63 1012.56 1012.45 1012.35 1012.26 1012.23 1012.23 1012.26 1012.28 1012.27 1012.20 1012.06 1011.87 1011.65 1011.44 1011.27 1011.17 1011.13 1011.16 1011.22 1011.30 1011.36 1011.41 1011.45 1011.50 1011.56
1012.05 1012.01 1011.98 1011.96 1011.93 1011.88 1011.81 1011.75 1011.71 1011.72 1011.81 1011.97 1012.18 1012.43 1012.67 1012.86 1012.97 1013.00 1012.95 1012.86 1012.77 1012.70 1012.68 1012.70 1012.75 1012.79 1012.79 1012.71 1012.55 1012.33 1012.06 1011.78 1011.53 1011.35 1011.23 1011.18 1011.18 1011.22 1011.26 1011.31 1011.36 1011.43 1011.52
1012.31 1012.33 1012.36 1012.37 1012.35 1012.28 1012.19 1012.09 1012.01 1011.99 1012.07 1012.23 1012.47 1012.74 1013.01 1013.24 1013.38 1013.44 1013.41 1013.34 1013.25 1013.19 1013.17 1013.20 1013.25 1013.29 1013.29 1013.21 1013.03 1012.78 1012.46 1012.13 1011.81 1011.55 1011.36 1011.25 1011.20 1011.20 1011.22 1011.27 1011.33 1011.41 1011.53
1012.45 1012.55 1012.65 1012.71 1012.72 1012.67 1012.58 1012.47 1012.38 1012.35 1012.41 1012.58 1012.82 1013.12 1013.41 1013.66 1013.82 1013.89 1013.88 1013.81 1013.73 1013.67 1013.65 1013.67 1013.72 1013.76 1013.75 1013.66 1013.47 1013.20 1012.85 1012.47 1012.11 1011.79 1011.55 1011.38 1011.29 1011.26 1011.27 1011.31 1011.38 1011.48 1011.61
1012.44 1012.62 1012.79 1012.93 1013.00 1012.99 1012.93 1012.84 1012.77 1012.75 1012.81 1012.98 1013.22 1013.51 1013.80 1014.05 1014.22 1014.30 1014.30 1014.24 1014.16 1014.10 1014.08 1014.10 1014.14 1014.18 1014.17 1014.08 1013.89 1013.60 1013.24 1012.84 1012.44 1012.09 1011.80 1011.60 1011.47 1011.41 1011.41 1011.45 1011.52 1011.62 1011.76
1012.28 1012.53 1012.78 1013.00 1013.14 1013.21 1013.21 1013.17 1013.13 1013.13 1013.20 1013.36 1013.59 1013.86 1014.14 1014.37 1014.54 1014.62 1014.63 1014.57 1014.51 1014.46 1014.44 1014.47 1014.52 1014.56 1014.56 1014.48 1014.30 1014.03 1013.67 1013.27 1012.85 1012.47 1012.15 1011.92 1011.76 1011.68 1011.65 1011.68 1011.74 1011.84 1011.97
1012.01 1012.32 1012.63 1012.92 1013.14 1013.29 1013.38 1013.41 1013.42 1013.45 1013.53 1013.68 1013.88 1014.13 1014.37 1014.59 1014.75 1014.83 1014.85 1014.83 1014.79 1014.76 1014.77 1014.81 1014.88 1014.94 1014.96 1014.90 1014.75 1014.50 1014.16 1013.77 1013.36 1012.96 1012.63 1012.36 1012.16 1012.05 1011.99 1011.99 1012.03 1012.11 1012.22
1011.68 1012.02 1012.38 1012.73 1013.02 1013.26 1013.42 1013.53 1013.60 1013.67 1013.76 1013.89 1014.06 1014.27 1014.48 1014.68 1014.83 1014.94 1014.99 1015.01 1015.02 1015.04 1015.09 1015.16 1015.26 1015.34 1015.39 1015.37 1015.25 1015.04 1014.74 1014.37 1013.97 1013.58 1013.22 1012.92 1012.69 1012.53 1012.44 1012.39 1012.39 1012.43 1012.50
1011.35 1011.70 1012.08 1012.46 1012.82 1013.12 1013.36 1013.54 1013.67 1013.77 1013.87 1013.99 1014.13 1014.30 1014.49 1014.67 1014.84 1014.97 1015.08 1015.17 1015.24 1015.33 1015.42 1015.54 1015.67 1015.78 1015.86 1015.87 1015.80 1015.64 1015.38 1015.06 1014.69 1014.30 1013.94 1013.61 1013.34 1013.13 1012.97 1012.87 1012.81 1012.79 1012.80
1011.05 1011.38 1011.76 1012.16 1012.56 1012.92 1013.22 1013.47 1013.65 1013.79 1013.89 1013.99 1014.11 1014.25 1014.41 1014.59 1014.79 1014.97 1015.15 1015.32 1015.47 1015.63 1015.78 1015.94 1016.10 1016.24 1016.35 1016.40 1016.37 1016.26 1016.07 1015.80 1015.47 1015.11 1014.75 1014.40 1014.09 1013.82 1013.60 1013.43 1013.30 1013.21 1013.15
1010.76 1011.07 1011.44 1011.84 1012.26 1012.67 1013.03 1013.33 1013.57 1013.73 1013.85 1013.94 1014.03 1014.15 1014.30 1014.49 1014.72 1014.97 1015.22 1015.47 1015.71 1015.93 1016.14 1016.34 1016.52 1016.68 1016.81 1016.89 1016.92 1016.87 1016.74 1016.54 1016.28 1015.96 1015.62 1015.27 1014.93 1014.61 1014.33 1014.08 1013.87 1013.70 1013.56
1010.45 1010.74 1011.09 1011.49 1011.93 1012.38 1012.80 1013.16 1013.44 1013.64 1013.77 1013.86 1013.94 1014.04 1014.19 1014.39 1014.65 1014.96 1015.29 1015.61 1015.93 1016.21 1016.46 1016.68 1016.87 1017.05 1017.19 1017.31 1017.38 1017.40 1017.35 1017.24 1017.05 1016.80 1016.50 1016.16 1015.81 1015.47 1015.13 1014.82 1014.54 1014.29 1014.07
1010.05 1010.33 1010.67 1011.09 1011.55 1012.05 1012.52 1012.94 1013.28 1013.53 1013.68 1013.78 1013.85 1013.94 1014.09 1014.30 1014.60 1014.95 1015.33 1015.72 1016.09 1016.41 1016.69 1016.92 1017.11 1017.29 1017.44 1017.59 1017.71 1017.80 1017.85 1017.83 1017.74 1017.58 1017.34 1017.04 1016.71 1016.35 1015.99 1015.63 1015.30 1014.98 1014.69
1009.52 1009.80 1010.15 1010.58 1011.09 1011.63 1012.18 1012.67 1013.08 1013.38 1013.58 1013.69 1013.77 1013.86 1014.01 1014.23 1014.53 1014.91 1015.33 1015.76 1016.16 1016.50 1016.79 1017.02 1017.21 1017.38 1017.54 1017.72 1017.89 1018.06 1018.20 1018.29 1018.31 1018.24 1018.09 1017.86 1017.57 1017.23 1016.86 1016.49 1016.12 1015.76 1015.42
1008.83 1009.11 1009.48 1009.94 1010.50 1011.11 1011.73 1012.31 1012.80 1013.18 1013.43 1013.58 1013.68 1013.77 1013.92 1014.13 1014.44 1014.83 1015.26 1015.70 1016.11 1016.46 1016.75 1016.97 1017.15 1017.32 1017.49 1017.70 1017.93 1018.17 1018.41 1018.60 1018.73 1018.77 1018.72 1018.56 1018.33 1018.04 1017.70 1017.34 1016.96 1016.59 1016.22
1008.01 1008.30 1008.68 1009.17 1009.77 1010.44 1011.15 1011.82 1012.41 1012.87 1013.19 1013.40 1013.53 1013.64 1013.79 1014.00 1014.30 1014.67 1015.10 1015.54 1015.94 1016.29 1016.57 1016.79 1016.97 1017.14 1017.33 1017.56 1017.84 1018.15 1018.47 1018.76 1018.99 1019.13 1019.17 1019.11 1018.95 1018.72 1018.43 1018.11 1017.76 1017.40 1017.03
1007.15 1007.42 1007.79 1008.28 1008.91 1009.64 1010.42 1011.19 1011.87 1012.43 1012.84 1013.11 1013.29 1013.43 1013.58 1013.79 1014.08 1014.44 1014.85 1015.28 1015.68 1016.02 1016.30 1016.52 1016.71 1016.89 1017.10 1017.36 1017.68 1018.04 1018.42 1018.79 1019.10 1019.33 1019.45 1019.47 1019.40 1019.24 1019.02 1018.75 1018.46 1018.14 1017.80
1006.33 1006.55 1006.88 1007.36 1007.98 1008.74 1009.57 1010.41 1011.18 1011.84 1012.34 1012.69 1012.93 1013.11 1013.28 1013.49 1013.77 1014.12 1014.52 1014.94 1015.33 1015.68 1015.97 1016.20 1016.40 1016.60 1016.84 1017.12 1017.47 1017.87 1018.29 1018.70 1019.07 1019.36 1019.55 1019.65 1019.65 1019.57 1019.43 1019.24 1019.02 1018.76 1018.47
Thickness
5755 5758 5759 5760 5760 5760 5760 5760 5760 5760 5760 5759 5759 5759 5759 5759 5759 5759 5759 5759 5759 5760 5760 5761 5761 5761 5762 5762 5762 5762 5762 5762 5762 5763 5763 5764 5765 5765 5764 5763 5763 5763 5762
5756 5757 5758 5758 5759 5758 5758 5758 5757 5757 5757 5757 5756 5756 5756 5756 5756 5756 5756 5757 5757 5757 5757 5757 5758 5758 5758 5759 5759 5759 5759 5759 5760 5760 5760 5761 5761 5761 5761 5761 5760 5760 5760
5755 5756 5756 5757 5757 5756 5755 5755 5755 5754 5754 5754 5753 5753 5753 5753 5753 5753 5753 5754 5754 5753 5754 5754 5755 5755 5755 5756 5756 5756 5756 5757 5757 5757 5757 5757 5757 5758 5758 5758 5758 5758 5758
5754 5754 5754 5755 5754 5754 5753 5752 5752 5752 5751 5751 5751 5750 5750 5750 5750 5750 5750 5750 5750 5750 5750 5751 5751 5751 5752 5752 5753 5753 5753 5753 5754 5754 5754 5754 5754 5755 5755 5756 5756 5756 5755
5751 5752 5752 5752 5752 5751 5750 5750 5749 5749 5748 5748 5748 5747 5747 5747 5747 5747 5747 5747 5747 5747 5747 5747 5747 5748 5748 5749 5749 5750 5750 5750 5750 5750 5750 5751 5751 5752 5752 5752 5753 5753 5753
5749 5749 5749 5749 5748 5748 5748 5747 5746 5746 5745 5745 5744 5744 5743 5743 5743 5744 5744 5744 5744 5744 5744 5744 5744 5744 5744 5745 5746 5746 5746 5746 5746 5746 5747 5747 5748 5748 5749 5749 5749 5749 5749
5745 5746 5746 5746 5745 5745 5745 5744 5744 5743 5742 5741 5741 5740 5740 5740 5740 5740 5740 5740 5740 5740 5740 5740 5740 5740 5741 5741 5742 5742 5742 5742 5742 5742 5743 5743 5744 5745 5745 5745 5745 5745 5746
5742 5742 5742 5742 5742 5742 5741 5740 5740 5739 5739 5738 5738 5737 5737 5736 5736 5736 5736 5736 5737 5737 5736 5736 5736 5736 5737 5737 5738 5738 5738 5738 5738 5738 5738 5739 5740 5741 5741 5741 5741 5741 5741
5739 5739 5738 5738 5738 5737 5737 5737 5737 5736 5735 5735 5734 5734 5733 5733 5733 5733 5733 5733 5733 5733 5733 5732 5733 5733 5733 5733 5734 5734 5734 5734 5734 5734 5734 5735 5736 5737 5737 5737 5737 5737 5737
5735 5734 5734 5734 5734 5733 5733 5733 5733 5732 5732 5731 5731 5730 5729 5729 5729 5729 5729 5729 5729 5729 5728 5728 5729 5729 5729 5729 5729 5729 5729 5729 5729 5729 5730 5731 5732 5732 5733 5732 5732 5732 5732
5730 5730 5730 5730 5729 5729 5729 5729 5729 5728 5728 5727 5727 5726 5725 5725 5725 5725 5725 5725 5725 5725 5724 5724 5724 5724 5724 5724 5724 5724 5724 5724 5724 5725 5725 5726 5727 5728 5728 5728 5727 5727 5728
5725 5726 5727 5727 5726 5726 5725 5725 5724 5724 5724 5723 5723 5722 5722 5722 5721 5721 5721 5721 5720 5720 5720 5719 5719 5719 5719 5719 5719 5719 5718 5719 5719 5720 5721 5721 5722 5723 5723 5723 5722 5723 5723
5723 5723 5724 5724 5723 5722 5722 5721 5721 5720 5720 5720 5719 5719 5719 5718 5718 5717 5717 5716 5716 5716 5715 5714 5714 5713 5713 5713 5713 5713 5713 5713 5713 5714 5715 5716 5717 5717 5718 5718 5718 5718 5718
5721 5721 5722 5722 5720 5720 5719 5718 5717 5717 5716 5716 5716 5715 5715 5714 5714 5713 5712 5712 5711 5711 5710 5709 5709 5708 5708 5708 5708 5707 5707 5707 5708 5708 5709 5710 5711 5712 5712 5712 5712 5713 5713
5719 5719 5720 5719 5718 5717 5716 5715 5714 5714 5713 5713 5712 5712 5711 5711 5709 5709 5708 5707 5707 5706 5705 5704 5704 5703 5703 5703 5702 5702 5701 5701 5701 5702 5703 5704 5705 5706 5707 5707 5707 5707 5708
5717 5717 5718 5717 5716 5715 5714 5713 5712 5711 5710 5709 5709 5709 5708 5707 5706 5705 5704 5703 5702 5702 5701 5700 5699 5698 5698 5697 5697 5696 5696 5696 5696 5696 5697 5698 5699 5700 5701 5701 5702 5702 5702
5717 5717 5716 5715 5714 5713 5711 5710 5709 5708 5707 5706 5705 5705 5704 5704 5702 5701 5700 5699 5698 5697 5697 5696 5695 5694 5693 5692 5691 5691 5691 5691 5691 5691 5692 5693 5693 5694 5695 5695 5696 5696 5697
5716 5714 5714 5714 5712 5710 5709 5707 5706 5705 5703 5702 5701 5701 5700 5699 5699 5697 5696 5695 5694 5693 5692 5691 5690 5688 5687 5686 5685 5685 5685 5686 5686 5686 5687 5687 5687 5688 5688 5689 5690 5691 5691
5715 5713 5711 5711 5709 5708 5706 5704 5703 5701 5700 5699 5698 5697 5696 5695 5694 5693 5691 5690 5689 5689 5687 5686 5684 5682 5681 5680 5679 5679 5679 5680 5680 5681 5682 5682 5682 5682 5683 5683 5684 5684 5685
5713 5712 5710 5708 5707 5705 5703 5701 5699 5697 5696 5695 5694 5693 5692 5691 5690 5688 5687 5685 5685 5683 5681 5680 5678 5677 5675 5675 5675 5673 5673 5674 5675 5675 5676 5676 5677 5677 5678 5678 5678 5678 5679
5710 5709 5707 5705 5703 5701 5699 5696 5694 5691 5691 5690 5689 5688 5687 5686 5685 5684 5682 5680 5679 5678 5676 5675 5673 5672 5670 5669 5667 5666 5667 5668 5669 5670 5671 5671 5672 5672 5672 5673 5673 5673 5673
5707 5706 5704 5703 5701 5699 5697 5695 5692 5689 5687 5686 5685 5684 5683 5681 5680 5679 5677 5675 5674 5672 5671 5670 5669 5666 5664 5663 5661 5658 5656 5658 5662 5664 5664 5665 5666 5667 5667 5668 5668 5668 5668
5705 5704 5703 5701 5699 5697 5695 5691 5688 5685 5683 5681 5680 5679 5678 5677 5675 5674 5673 5671 5669 5667 5666 5664 5664 5662 5659 5657 5657 5655 5651 5650 5651 5656 5657 5659 5660 5661 5662 5663 5663 5664 5663
5704 5703 5701 5699 5696 5694 5692 5688 5685 5681 5677 5676 5675 5675 5674 5673 5671 5669 5668 5666 5664 5663 5661 5660 5659 5657 5656 5653 5652 5651 5650 5649 5647 5647 5650 5652 5654 5655 5656 5658 5659 5659 5659
5702 5700 5698 5696 5693 5691 5689 5685 5682 5678 5675 5673 5672 5670 5669 5668 5666 5665 5663 5661 5659 5658 5656 5655 5654 5652 5651 5650 5648 5647 5646 5644 5644 5643 5642 5645 5647 5650 5651 5653 5654 5655 5655
5699 5697 5694 5692 5689 5687 5685 5682 5679 5675 5672 5669 5667 5665 5663 5662 5661 5660 5659 5657 5655 5654 5652 5651 5650 5648 5647 5646 5645 5644 5643 5642 5641 5639 5638 5638 5640 5643 5646 5648 5650 5650 5651